Wind_Speed
143 130 107 96 89 84 74 69 67 63 59 55 50 47 44 43 40 40 38 41 43 49 55 52 52 55 65 74 81 86 90 90 90 89 88 83 81 80 75 70 70 66 70 71 74 79 85 92 96 97 94 90 87 85
113 105 94 82 78 71 64 62 58 54 50 46 42 40 39 37 35 33 34 36 40 47 42 42 45 50 57 66 72 78 83 89 89 88 86 83 82 77 72 73 71 62 64 63 50 56 80 89 93 95 94 91 89 89
88 87 77 71 65 61 57 53 50 47 43 40 37 35 33 31 29 27 27 29 34 35 35 41 43 45 52 60 62 66 76 85 86 86 85 78 79 73 64 63 63 59 64 60 60 66 66 85 89 94 93 91 87 87
79 72 65 59 55 52 49 47 44 40 37 35 31 27 25 23 21 21 22 24 25 28 34 37 40 45 48 54 63 68 75 84 87 86 82 78 73 73 69 56 53 57 62 56 67 57 48 71 84 87 92 90 86 84
67 61 55 50 47 45 43 41 37 33 31 27 24 21 18 17 15 15 17 19 22 27 32 35 40 44 47 52 57 63 73 77 82 82 81 77 74 73 66 57 54 55 53 60 53 55 45 47 62 85 89 86 84 83
54 50 46 43 41 38 37 32 29 25 22 20 16 12 10 10 10 12 15 18 23 26 30 35 39 43 46 51 56 65 71 74 77 82 82 75 75 70 57 53 49 49 53 61 66 57 50 51 44 51 76 89 84 80
46 42 40 37 34 32 28 24 21 18 16 13 8 3 4 7 10 13 17 21 25 28 33 38 41 44 48 53 60 68 69 67 80 82 81 77 72 60 57 55 54 61 66 60 61 65 54 53 51 51 65 71 82 83
43 39 35 31 28 24 21 18 15 13 10 8 5 2 6 10 14 18 22 25 29 33 38 40 42 46 50 57 68 82 84 78 77 81 76 72 56 57 54 54 53 67 73 74 69 72 74 72 58 45 50 58 59 68
40 34 29 26 22 19 15 12 10 8 7 7 6 8 11 14 18 21 23 27 32 36 38 40 43 47 55 62 68 73 79 73 70 65 67 61 57 56 50 53 55 66 80 70 73 75 75 74 67 69 64 66 56 58
35 30 25 22 18 14 11 8 8 8 8 7 8 10 11 15 18 20 25 28 31 36 41 43 46 51 57 65 72 73 77 79 76 68 64 61 55 56 49 49 48 58 83 80 79 75 70 70 74 77 73 68 71 74
33 28 24 20 16 13 10 9 8 8 9 10 12 14 15 16 17 19 23 26 29 31 36 41 47 52 57 62 65 71 70 72 75 71 60 57 58 57 54 53 57 65 88 89 82 69 81 81 76 70 72 71 69 68
30 26 23 20 16 14 12 11 10 9 10 11 14 17 18 20 22 23 23 25 29 35 38 42 46 53 57 62 64 73 72 68 66 67 61 57 65 64 61 64 63 61 84 93 91 86 84 78 79 77 74 69 67 69
28 27 24 21 18 16 14 14 13 12 12 13 14 17 18 20 23 22 25 29 32 36 39 41 46 50 55 61 66 69 70 63 59 60 61 65 64 60 63 63 66 64 62 83 86 71 68 74 77 83 80 71 77 76
28 27 25 23 21 18 17 16 15 13 13 13 15 18 20 21 22 23 25 26 27 29 33 40 46 50 51 52 57 63 61 57 51 57 62 60 56 55 56 59 57 56 65 67 66 86 77 74 76 79 76 67 64 64
28 27 25 24 22 21 20 19 18 17 14 14 15 17 22 22 23 24 24 24 24 27 31 34 38 44 49 54 56 52 52 51 53 56 60 57 55 52 60 53 49 51 55 59 57 57 56 56 58 62 64 65 63 64
28 28 26 23 23 23 24 25 24 23 20 17 14 15 15 19 23 24 24 25 27 29 31 31 36 41 45 47 49 49 50 50 48 48 52 55 54 56 56 58 55 52 50 49 46 48 50 52 53 55 56 57 59 60
28 27 25 24 22 20 20 22 23 15 17 21 21 21 20 18 20 24 26 26 28 30 33 35 36 41 42 41 40 42 43 44 43 43 48 54 60 63 60 59 60 58 60 60 58 55 53 54 55 54 54 53 54 56
28 26 24 24 22 22 21 19 18 20 18 19 19 20 21 21 22 24 27 28 30 31 34 35 35 38 39 39 38 37 36 32 35 36 40 49 54 56 65 71 68 66 64 61 61 63 61 59 58 60 60 60 63 65
31 29 27 25 24 24 23 21 19 21 22 22 21 21 21 22 23 24 27 29 30 32 33 35 34 34 33 32 31 31 31 29 28 28 34 44 52 52 54 61 61 64 55 51 55 55 56 58 63 67 70 69 65 64
35 32 32 31 29 28 27 26 23 23 24 24 25 23 22 22 23 24 25 28 30 31 32 34 33 30 29 29 29 27 25 27 27 30 36 42 47 52 55 57 60 61 58 56 56 56 54 56 58 60 63 65 67 67
41 36 34 33 33 31 29 27 25 25 25 25 25 24 22 21 21 21 22 25 26 26 28 29 28 28 27 24 21 19 20 20 20 27 34 38 40 41 43 47 52 54 56 57 56 56 56 57 60 63 64 66 66 67
47 44 40 36 34 34 34 31 28 26 26 25 24 24 23 21 20 19 18 20 21 22 24 27 27 24 22 21 19 19 20 20 23 25 24 26 31 37 41 45 48 51 54 57 61 62 62 62 62 62 63 63 63 63
47 47 45 42 40 37 36 35 34 31 29 27 25 23 21 19 17 16 15 14 14 14 15 18 21 22 22 21 20 20 22 23 24 26 29 32 35 39 43 45 47 49 52 54 56 58 60 62 64 65 67 69 71 73
39 41 44 43 42 42 42 40 37 33 30 30 29 26 24 22 19 17 15 12 10 7 8 9 12 13 15 16 18 19 22 24 26 29 32 34 37 40 43 45 47 49 52 54 57 58 60 61 63 63 63 64 63 61
38 34 35 36 39 39 41 41 41 40 38 36 34 31 27 24 22 19 15 12 10 8 7 7 8 10 12 14 16 19 21 23 26 28 30 33 35 37 39 40 42 43 44 46 48 48 48 48 48 48 48 48 48 47
33 31 33 35 36 36 36 36 36 35 34 34 33 32 30 29 28 26 22 19 14 10 7 5 3 3 5 8 9 11 13 15 17 19 20 22 23 24 26 28 29 31 33 35 37 38 38 40 41 43 44 46 47 48
25 26 28 30 29 29 30 29 30 29 28 27 25 22 20 18 17 15 13 11 10 8 6 4 2 1 3 6 9 12 14 15 16 17 19 20 22 24 27 29 31 33 35 38 40 42 44 45 46 48 50 52 53 55
24 23 23 23 23 22 21 21 21 22 21 21 19 18 17 16 16 15 14 12 9 7 6 6 7 9 12 15 18 20 21 23 25 27 29 30 32 35 38 40 42 44 46 49 51 52 53 54 56 57 59 61 62 64
26 26 26 24 22 20 19 18 17 16 15 15 16 17 16 16 15 14 15 17 19 21 23 23 24 24 25 27 29 31 32 34 36 39 41 44 46 47 49 52 54 55 56 57 57 59 60 61 61 62 63 65 65 66
26 26 25 24 24 23 21 19 19 19 20 20 20 22 22 20 21 22 21 22 20 17 22 25 26 31 36 37 37 37 39 41 43 44 46 51 55 57 59 58 58 58 58 58 59 59 60 61 62 63 65 66 67 68
30 27 25 22 20 18 17 16 15 15 17 20 23 27 28 29 25 22 25 27 25 18 15 16 21 27 32 36 38 41 45 48 50 50 52 54 57 60 61 62 64 65 65 65 64 63 63 62 62 61 60 59 58 58
32 31 31 31 30 27 25 23 22 21 20 19 21 22 27 29 29 28 28 28 26 27 26 25 26 26 27 29 32 38 45 49 53 54 58 59 56 54 53 53 53 54 54 54 54 53 53 54 53 54 54 54 53 52
35 35 34 34 35 35 34 33 32 30 29 27 26 26 28 30 30 31 31 32 33 34 35 37 38 39 39 40 40 41 41 41 41 41 43 43 44 45 45 46 47 48 49 50 51 52 53 53 52 52 52 51 50 49
Wind_Direction
317 310 307 306 307 305 305 300 301 301 298 296 294 290 286 282 275 266 259 249 242 239 239 236 233 227 222 225 225 224 222 216 215 217 219 221 222 227 230 234 235 234 232 229 229 227 226 226 228 230 233 233 234 236
311 309 308 307 307 306 302 303 302 301 299 297 295 290 286 281 273 264 251 243 237 237 235 230 225 221 217 218 221 222 218 213 212 214 218 221 221 225 228 233 234 233 228 225 216 235 229 226 227 228 230 233 233 236
309 309 308 308 306 305 306 304 305 302 301 298 294 289 284 276 267 255 245 236 230 230 222 219 215 212 211 212 214 213 212 208 209 211 215 218 220 222 225 227 233 225 224 215 209 218 227 226 228 230 230 233 234 236
312 310 310 308 304 306 307 307 305 303 301 298 294 288 279 271 257 246 235 228 221 214 210 208 203 205 203 203 205 208 208 206 205 210 212 215 217 219 225 224 227 222 219 212 215 216 243 230 228 231 232 233 235 236
313 311 310 307 308 309 310 307 306 304 303 300 297 288 271 258 247 233 225 215 205 201 200 197 196 198 196 197 199 200 201 201 204 206 209 210 216 217 221 220 221 218 210 206 213 205 215 228 233 232 231 233 236 237
315 313 313 313 314 314 313 311 311 311 310 311 307 289 258 238 218 209 203 196 192 189 187 186 190 191 189 189 189 193 197 198 202 201 206 208 215 216 215 216 211 206 194 201 193 198 219 227 218 225 235 232 234 236
322 320 320 319 319 319 319 319 320 322 327 331 330 293 207 188 185 179 175 175 175 175 176 179 183 184 183 183 182 180 175 184 199 200 205 210 214 212 214 210 201 200 190 198 208 206 205 217 222 226 235 237 237 236
330 329 328 326 325 324 325 328 331 341 353 1 17 83 139 153 158 161 163 167 168 168 173 177 179 178 179 179 179 177 184 192 201 203 208 210 210 208 212 209 201 202 198 206 215 215 223 221 216 205 217 226 234 241
337 335 334 332 329 330 332 339 351 11 23 40 79 120 141 150 155 158 160 162 165 168 170 171 174 176 175 179 183 184 186 187 197 201 205 205 208 206 207 207 210 207 202 204 208 216 222 226 229 225 225 234 230 224
343 341 342 344 345 350 1 14 28 48 61 81 104 121 138 145 149 155 158 161 164 165 168 170 172 173 177 180 183 187 188 192 196 204 204 200 198 200 200 211 217 213 203 206 212 216 216 227 228 229 235 238 235 229
350 353 359 5 13 21 32 43 50 68 86 99 109 117 122 130 139 147 155 159 159 162 167 170 172 173 177 183 184 184 193 196 193 201 202 198 199 199 202 200 208 212 203 208 216 225 223 226 229 230 233 232 238 243
360 6 13 20 27 32 42 50 56 73 91 107 117 122 128 133 137 145 146 147 154 160 166 168 171 175 180 183 184 189 195 200 195 197 196 195 198 198 193 203 209 214 209 214 216 224 231 234 236 242 241 234 246 245
13 18 22 25 31 39 47 57 67 77 95 110 121 128 131 134 135 136 142 149 157 162 165 171 172 175 179 186 188 193 198 202 197 194 194 198 203 206 210 212 217 223 222 214 216 221 229 235 236 236 238 241 244 251
19 25 29 32 36 44 53 62 73 85 98 114 123 125 127 132 137 141 147 153 158 159 166 172 173 176 181 184 190 195 197 199 193 194 195 201 205 209 209 211 219 221 221 222 228 223 229 235 239 244 246 246 245 245
23 28 32 36 42 49 56 60 65 68 75 100 116 128 132 136 138 142 149 152 156 160 165 168 171 175 178 184 191 193 194 197 194 194 197 202 204 207 206 210 220 220 226 230 236 233 233 234 236 239 241 245 247 249
29 34 35 41 51 58 62 66 66 78 81 84 97 113 126 136 138 142 150 155 159 160 162 166 171 179 183 186 187 189 193 194 195 199 203 206 208 204 203 206 211 218 221 225 228 229 230 235 240 243 242 244 244 248
33 40 43 45 52 59 66 78 85 98 101 107 114 123 127 127 131 141 150 157 160 160 164 168 174 179 186 189 192 192 195 196 199 205 207 209 207 208 209 213 221 225 228 227 231 235 241 247 252 251 250 253 256 258
37 43 50 54 57 61 64 77 92 94 92 98 108 116 125 126 128 138 149 156 160 163 167 173 180 185 185 188 191 195 199 202 205 214 215 212 213 216 219 219 224 228 232 237 240 242 248 249 249 249 254 256 259 263
42 47 51 56 61 64 63 67 77 85 89 92 100 106 114 119 124 137 147 154 160 165 170 175 183 192 196 200 202 207 212 212 214 216 214 215 215 218 223 226 232 233 239 242 245 251 253 254 254 254 257 259 259 259
41 49 55 58 61 65 68 71 75 79 85 92 96 103 113 119 124 138 145 154 160 165 171 179 185 192 200 208 214 216 217 218 218 214 213 216 219 223 228 233 235 240 243 248 253 252 248 248 250 251 252 254 257 260
44 46 52 58 62 64 67 72 77 80 86 91 95 100 106 111 117 127 139 150 156 165 174 183 190 196 203 211 217 214 213 222 221 216 217 221 226 231 234 236 237 241 243 244 248 251 253 255 257 258 259 261 263 266
48 49 51 54 60 66 68 69 73 79 83 87 91 97 103 111 117 124 134 147 157 166 175 185 194 202 209 216 222 224 230 233 233 233 233 231 234 237 240 242 245 246 248 249 251 255 257 260 261 262 263 265 267 268
50 51 51 55 59 63 66 71 74 74 76 81 84 86 89 94 106 119 128 138 144 155 170 188 204 214 222 228 232 235 239 241 242 245 247 247 248 248 250 250 251 252 253 255 257 259 262 265 266 267 269 270 271 271
52 52 52 53 58 63 65 66 69 74 79 83 87 89 91 93 94 95 100 108 117 147 180 200 212 220 228 235 242 245 246 246 247 248 250 251 252 253 255 257 259 261 262 263 264 265 266 267 268 269 270 269 270 271
52 51 56 56 57 60 66 70 72 73 74 74 75 76 80 86 91 97 102 111 122 137 158 180 197 208 220 225 231 238 243 247 250 253 255 258 261 263 265 266 266 266 266 267 266 267 268 269 269 269 269 270 271 271
57 56 56 57 58 59 60 59 60 62 64 66 68 71 74 77 77 77 80 82 86 91 102 118 137 198 235 245 250 255 260 262 261 263 266 270 272 275 277 278 278 277 275 274 273 271 270 271 271 271 271 271 271 271
52 52 55 56 52 49 50 51 52 50 49 50 52 53 55 62 70 75 81 87 94 95 97 105 120 208 238 244 251 253 258 259 261 262 262 264 267 269 270 271 271 270 270 270 270 270 271 270 270 270 271 271 273 274
41 43 42 41 42 41 39 38 37 34 31 28 27 24 21 17 12 4 354 346 340 328 309 284 264 257 255 256 258 262 263 265 266 266 265 265 266 269 269 269 269 269 269 269 269 269 270 272 273 274 276 277 278 278
36 35 36 37 34 28 23 20 16 12 8 5 356 347 341 342 337 334 322 314 313 311 306 299 292 287 283 281 279 277 276 276 276 276 277 278 279 277 276 276 277 278 280 282 283 284 284 283 283 282 281 282 281 281
29 28 27 25 22 20 19 14 10 2 357 353 344 339 350 352 331 328 321 318 316 317 300 288 287 287 281 278 277 276 277 277 278 280 284 285 283 283 284 286 288 288 288 287 286 285 284 283 283 283 283 283 282 282
29 28 31 37 33 23 16 5 353 345 337 330 327 327 328 333 337 325 321 321 329 323 293 280 273 277 281 283 281 280 281 281 281 281 287 287 288 290 290 290 290 290 289 288 287 287 286 286 286 285 284 284 283 281
27 27 25 25 24 21 16 11 5 1 356 356 4 5 3 358 356 353 350 348 344 339 334 327 322 310 297 294 290 285 284 285 286 286 287 289 290 290 289 287 286 285 285 286 287 289 290 290 289 289 289 289 289 289
26 27 26 25 26 25 25 24 23 20 16 12 5 356 349 346 345 343 340 337 334 331 328 325 323 321 319 317 313 311 309 308 306 304 302 301 300 300 299 299 298 298 297 296 295 294 293 293 294 294 294 294 293 292
Height
10430 10400 10376 10361 10347 10335 10325 10314 10306 10299 10293 10288 10284 10282 10279 10279 10282 10280 10287 10291 10297 10300 10305 10324 10339 10353 10366 10382 10398 10417 10441 10466 10489 10506 10522 10537 10554 10566 10581 10590 10597 10606 10617 10631 10644 10655 10668 10681 10691 10700 10714 10728 10743 10748
10384 10366 10350 10335 10323 10312 10302 10294 10286 10281 10275 10271 10267 10266 10263 10263 10264 10266 10270 10275 10281 10283 10302 10315 10326 10337 10351 10367 10383 10401 10427 10450 10471 10490 10508 10524 10542 10555 10567 10575 10582 10597 10609 10620 10634 10639 10654 10661 10673 10683 10693 10706 10721 10728
10352 10338 10326 10314 10303 10294 10286 10278 10271 10266 10261 10257 10254 10252 10250 10251 10252 10254 10260 10266 10271 10281 10293 10300 10313 10326 10339 10353 10371 10391 10414 10436 10455 10477 10495 10512 10528 10542 10554 10565 10571 10585 10594 10612 10616 10624 10634 10645 10657 10667 10680 10689 10704 10714
10329 10316 10306 10296 10287 10280 10272 10265 10258 10253 10249 10246 10243 10241 10240 10242 10243 10247 10253 10258 10265 10273 10282 10293 10304 10315 10330 10343 10358 10376 10400 10422 10445 10465 10483 10499 10515 10529 10541 10555 10564 10574 10586 10600 10610 10623 10629 10635 10645 10654 10665 10675 10687 10699
10311 10300 10290 10282 10275 10268 10260 10254 10248 10243 10240 10237 10234 10232 10233 10234 10238 10243 10248 10253 10260 10269 10278 10288 10298 10310 10323 10337 10352 10373 10395 10416 10436 10456 10471 10489 10502 10516 10530 10545 10555 10568 10584 10594 10602 10615 10617 10623 10630 10640 10650 10660 10673 10680
10298 10288 10279 10272 10264 10256 10249 10244 10239 10235 10233 10230 10228 10227 10228 10231 10235 10240 10245 10250 10258 10267 10276 10287 10298 10309 10322 10337 10353 10373 10396 10414 10430 10443 10458 10477 10491 10509 10526 10538 10547 10559 10573 10585 10594 10602 10607 10614 10619 10626 10638 10647 10657 10666
10288 10278 10270 10262 10254 10248 10242 10238 10234 10231 10229 10227 10226 10226 10228 10231 10234 10238 10243 10250 10257 10265 10276 10285 10295 10307 10322 10337 10355 10375 10392 10406 10415 10438 10454 10470 10487 10505 10518 10532 10541 10553 10567 10576 10584 10594 10597 10603 10610 10616 10624 10634 10643 10652
10279 10269 10261 10254 10248 10243 10239 10235 10232 10230 10228 10228 10228 10228 10229 10231 10234 10239 10244 10250 10257 10265 10274 10284 10296 10309 10324 10339 10356 10371 10385 10399 10412 10430 10447 10468 10488 10501 10512 10523 10536 10545 10556 10566 10574 10583 10587 10592 10603 10608 10613 10620 10628 10636
10272 10263 10256 10250 10245 10240 10236 10234 10232 10231 10230 10230 10229 10231 10232 10234 10237 10242 10248 10254 10260 10269 10278 10289 10301 10313 10326 10340 10355 10371 10383 10402 10415 10431 10448 10469 10482 10497 10507 10517 10528 10540 10546 10555 10562 10566 10576 10584 10591 10598 10601 10606 10615 10622
10269 10261 10254 10248 10243 10239 10237 10235 10234 10233 10233 10233 10233 10235 10237 10239 10243 10248 10252 10258 10266 10274 10281 10292 10303 10315 10328 10341 10353 10367 10385 10401 10418 10430 10446 10459 10475 10487 10503 10510 10519 10526 10535 10544 10550 10557 10563 10567 10575 10583 10588 10595 10603 10607
10270 10262 10255 10249 10245 10242 10240 10239 10237 10236 10236 10237 10238 10240 10243 10246 10249 10254 10259 10265 10273 10281 10288 10297 10308 10319 10332 10345 10359 10373 10383 10398 10416 10423 10443 10459 10469 10481 10491 10498 10504 10510 10523 10535 10543 10548 10552 10555 10560 10570 10577 10585 10590 10597
10273 10266 10259 10254 10250 10247 10245 10244 10242 10242 10241 10242 10244 10245 10248 10251 10255 10259 10265 10272 10279 10286 10295 10303 10314 10325 10338 10350 10365 10375 10383 10396 10414 10428 10442 10453 10459 10471 10481 10488 10492 10503 10517 10525 10532 10536 10542 10548 10555 10562 10567 10574 10581 10584
10279 10271 10265 10260 10256 10253 10251 10249 10248 10248 10248 10249 10250 10253 10255 10259 10263 10268 10272 10277 10284 10292 10301 10309 10319 10330 10341 10353 10365 10375 10386 10397 10415 10427 10436 10443 10452 10468 10474 10484 10492 10500 10508 10516 10523 10527 10532 10537 10543 10548 10554 10560 10565 10571
10285 10278 10272 10267 10263 10259 10257 10256 10255 10255 10255 10256 10258 10260 10264 10268 10272 10276 10279 10285 10293 10302 10309 10315 10323 10334 10346 10359 10368 10378 10390 10402 10416 10426 10434 10443 10452 10461 10470 10479 10487 10493 10500 10506 10511 10519 10521 10524 10530 10537 10542 10547 10550 10553
10291 10285 10279 10275 10271 10268 10266 10265 10264 10265 10265 10266 10267 10269 10270 10275 10280 10284 10289 10295 10302 10310 10317 10325 10334 10342 10351 10360 10372 10383 10396 10406 10417 10425 10433 10441 10449 10457 10465 10473 10479 10486 10492 10497 10502 10507 10512 10516 10520 10524 10528 10531 10535 10538
10299 10293 10288 10284 10280 10277 10275 10274 10274 10273 10274 10276 10277 10279 10281 10283 10288 10293 10297 10302 10310 10317 10325 10334 10343 10350 10357 10366 10376 10387 10398 10408 10416 10423 10431 10439 10446 10454 10460 10467 10473 10478 10483 10488 10491 10496 10501 10505 10508 10511 10514 10517 10520 10523
10306 10300 10297 10293 10289 10285 10284 10282 10281 10281 10281 10282 10284 10285 10288 10292 10296 10300 10305 10310 10317 10325 10331 10339 10347 10355 10364 10374 10383 10392 10400 10409 10415 10421 10427 10434 10442 10450 10457 10461 10464 10468 10471 10475 10480 10485 10490 10494 10497 10500 10502 10504 10505 10507
10315 10309 10304 10301 10298 10295 10293 10292 10291 10290 10291 10291 10293 10294 10296 10300 10304 10308 10313 10318 10325 10332 10339 10346 10354 10361 10369 10378 10386 10395 10402 10408 10414 10419 10425 10432 10438 10443 10447 10450 10453 10458 10463 10468 10472 10476 10479 10482 10484 10486 10488 10490 10491 10492
10325 10319 10314 10310 10307 10304 10302 10301 10301 10300 10301 10302 10303 10305 10307 10310 10313 10317 10321 10326 10332 10339 10346 10352 10359 10366 10375 10382 10389 10395 10400 10405 10410 10414 10418 10423 10428 10433 10438 10442 10447 10452 10457 10460 10461 10464 10466 10468 10470 10472 10472 10471 10471 10472
10336 10330 10324 10320 10317 10314 10313 10311 10311 10310 10311 10311 10312 10314 10315 10318 10321 10325 10330 10335 10340 10346 10351 10357 10363 10369 10375 10381 10386 10391 10396 10400 10404 10408 10411 10415 10420 10425 10430 10435 10439 10442 10445 10447 10447 10448 10448 10449 10450 10452 10452 10452 10453 10452
10349 10343 10336 10331 10328 10325 10324 10322 10321 10320 10320 10320 10322 10324 10326 10329 10332 10336 10340 10345 10349 10353 10358 10363 10368 10373 10377 10382 10386 10390 10394 10397 10401 10404 10407 10411 10416 10420 10423 10425 10427 10429 10430 10431 10432 10433 10434 10434 10433 10434 10434 10435 10435 10435
10363 10357 10349 10344 10341 10337 10335 10334 10333 10332 10331 10331 10333 10334 10336 10339 10342 10345 10348 10352 10355 10360 10364 10368 10372 10376 10379 10383 10386 10390 10393 10394 10397 10399 10402 10405 10408 10410 10411 10413 10414 10415 10416 10416 10416 10416 10416 10417 10417 10417 10416 10416 10415 10414
10376 10371 10366 10360 10355 10351 10348 10346 10345 10344 10343 10344 10344 10345 10347 10349 10351 10353 10356 10359 10362 10366 10369 10373 10376 10378 10381 10383 10385 10387 10389 10390 10392 10393 10395 10397 10398 10398 10399 10399 10400 10399 10399 10399 10399 10398 10397 10396 10396 10395 10394 10393 10392 10391
10389 10384 10380 10377 10371 10366 10362 10360 10358 10357 10356 10356 10355 10355 10356 10357 10359 10361 10363 10366 10368 10370 10372 10374 10375 10377 10379 10381 10382 10383 10383 10383 10384 10384 10384 10385 10385 10385 10385 10384 10384 10384 10383 10382 10380 10379 10378 10377 10375 10374 10372 10370 10368 10366
10397 10397 10393 10390 10385 10382 10378 10375 10373 10371 10370 10369 10367 10367 10367 10367 10366 10367 10369 10370 10372 10373 10373 10374 10375 10376 10377 10377 10377 10377 10376 10376 10376 10375 10375 10375 10374 10373 10372 10371 10369 10368 10366 10364 10362 10360 10358 10356 10354 10352 10350 10348 10347 10345
10408 10407 10404 10400 10396 10393 10391 10388 10386 10384 10382 10380 10379 10379 10379 10377 10376 10376 10376 10376 10377 10376 10375 10375 10374 10374 10373 10372 10371 10371 10369 10368 10368 10367 10366 10364 10362 10361 10359 10358 10356 10354 10351 10349 10346 10344 10342 10339 10337 10335 10333 10331 10329 10326
10417 10415 10411 10408 10406 10404 10401 10399 10397 10395 10393 10391 10389 10388 10386 10384 10383 10382 10381 10380 10379 10378 10377 10376 10375 10374 10372 10370 10369 10367 10365 10363 10361 10359 10358 10356 10353 10351 10348 10345 10342 10339 10337 10335 10332 10329 10326 10324 10321 10318 10316 10313 10310 10308
10424 10420 10417 10415 10412 10410 10408 10406 10404 10402 10400 10398 10396 10395 10392 10390 10389 10387 10385 10383 10381 10379 10377 10375 10373 10370 10367 10364 10362 10360 10358 10356 10353 10350 10347 10344 10341 10338 10334 10331 10327 10324 10320 10317 10313 10310 10308 10305 10302 10299 10296 10293 10290 10287
10430 10426 10423 10421 10417 10414 10412 10410 10407 10405 10403 10401 10398 10396 10393 10391 10389 10387 10384 10382 10380 10378 10376 10373 10371 10368 10365 10361 10358 10354 10350 10347 10344 10340 10336 10332 10328 10324 10320 10315 10310 10306 10301 10298 10296 10291 10287 10284 10280 10276 10273 10269 10265 10261
10434 10430 10427 10424 10420 10417 10415 10411 10408 10405 10402 10399 10396 10393 10391 10389 10385 10382 10379 10376 10374 10371 10368 10364 10361 10358 10354 10350 10346 10341 10337 10333 10329 10324 10319 10314 10309 10304 10299 10294 10290 10286 10281 10277 10273 10269 10265 10261 10257 10253 10249 10245 10241 10236
10437 10434 10431 10429 10426 10422 10418 10413 10409 10406 10402 10398 10394 10390 10387 10384 10381 10379 10375 10370 10366 10361 10357 10353 10349 10344 10340 10334 10329 10325 10320 10316 10311 10306 10302 10298 10293 10288 10282 10276 10271 10265 10260 10256 10251 10246 10241 10236 10232 10228 10224 10221 10217 10213
10439 10434 10430 10426 10425 10421 10417 10412 10408 10404 10399 10395 10390 10387 10382 10378 10375 10370 10365 10361 10357 10352 10348 10344 10338 10334 10329 10326 10321 10315 10308 10301 10295 10289 10284 10279 10273 10267 10262 10256 10251 10246 10241 10235 10230 10224 10219 10214 10209 10204 10199 10195 10191 10188
10443 10439 10435 10430 10425 10421 10416 10411 10407 10402 10398 10394 10391 10387 10382 10377 10371 10366 10360 10355 10350 10344 10338 10332 10326 10320 10314 10308 10302 10296 10290 10285 10279 10273 10267 10260 10254 10247 10241 10235 10229 10223 10218 10212 10207 10201 10196 10192 10187 10183 10179 10174 10170 10167